Home > Weather > Dallas > Past weeks

Flag for USA Past Weather in Dallas, Texas, USA — Yesterday and Last 2 Weeks

Now
95 °F

Scattered clouds.


Feels Like: 101 °F
Forecast: 79 / 92 °F
Wind: 6 mph from North

Location: Dallas Love Field

Current Time: Jul 28, 2016 at 3:36:31 PM

Latest Report: Jul 28, 2016 at 2:53 PM


Visibility: 10 mi

Pressure: 29.90 "Hg

Humidity: 44%

Dew Point: 70 °F

Location of DallasLocation

Past Weather in Dallas — Graph

°F

Dallas Temperature Yesterday

Maximum temperature yesterday: 95 °F (at 2:53 PM)
Minimum temperature yesterday: 80 °F (at 5:53 AM)
Average temperature yesterday: 86 °F

High & Low Weather Summary for the Past Weeks

 TemperatureHumidityPressure
High100 °F (Jul 22, 4:53 PM)90% (Jul 15, 9:53 AM)30.18 "Hg (Jul 15, 9:53 AM)
Low71 °F (Jul 15, 9:53 AM)32% (Jul 22, 3:53 PM)29.83 "Hg (Jul 23, 6:53 PM)
Average89 °F56%29.97 "Hg
* Reported Jul 13 1:53 PM — Jul 28 1:53 PM, Dallas, Weather by CustomWeather, © 2016

Note: Actual official high and low records may vary slightly from our data, if they occured in-between our weather recording intervals... More about our weather records

Advertising

Dallas Weather History for the Previous 24 Hours

Scroll right to see more
 ConditionsComfort  
Time TempWeatherWind HumidityBarometerVisibility
1:53 PM
Thu, Jul 28
94 °FPassing clouds.8 mph44%29.91 "Hg10 mi
12:53 PM91 °FScattered clouds.8 mph52%29.93 "Hg10 mi
11:53 AM89 °FBroken clouds.7 mph57%29.96 "Hg10 mi
10:53 AM87 °FBroken clouds.12 mph61%29.96 "Hg10 mi
9:53 AM85 °FBroken clouds.7 mph65%29.97 "Hg10 mi
8:53 AM82 °FPartly sunny.7 mph72%29.98 "Hg10 mi
7:53 AM81 °FMostly cloudy.7 mph74%29.97 "Hg9 mi
6:53 AM81 °FMostly cloudy.7 mph74%29.95 "Hg10 mi
5:53 AM81 °FPassing clouds.3 mph77%29.94 "Hg10 mi
4:53 AM81 °FPassing clouds.5 mph74%29.92 "Hg10 mi
3:53 AM81 °FPassing clouds.8 mph74%29.90 "Hg10 mi
2:53 AM82 °FPassing clouds.7 mph74%29.90 "Hg10 mi
1:53 AM83 °FPassing clouds.8 mph72%29.90 "Hg10 mi
12:53 AM84 °FPartly cloudy.8 mph70%29.90 "Hg10 mi
11:53 PM
Wed, Jul 27
85 °FPartly cloudy.8 mph68%29.91 "Hg10 mi
10:53 PM86 °FPartly cloudy.13 mph65%29.92 "Hg10 mi
9:53 PM87 °FPartly cloudy.8 mph61%29.91 "Hg10 mi
8:53 PM87 °FMostly cloudy.6 mph63%29.89 "Hg10 mi
7:53 PM86 °FBroken clouds.5 mph75%29.85 "Hg10 mi
6:53 PM88 °FPartly sunny.No wind59%29.85 "Hg10 mi
5:53 PM86 °FBroken clouds.3 mph67%29.85 "Hg10 mi
4:53 PM84 °FBroken clouds.3 mph70%29.87 "Hg10 mi
3:53 PM86 °FThunderstorms. Partly sunny.17 mph61%29.88 "Hg10 mi
Weather by CustomWeather, © 2016

See weather overviewHow to use our weather pages